Location: Nitra
(0.0000°N, 18.0833°E)
Time: 05:30:46
(UTC+01:00)

USA 267 - Pass Details

Date: 25 September 2022
Orbit: 1095 x 1112 km, 123.0° (Epoch: 28 November)

Event Time Altitude Azimuth Distance (km) Brightness Sun altitude
Exits shadow 20:39:47 80° 64° (ENE) 1,111 3.0 -30.1°
Maximum altitude 20:39:51 80° 54° (NE) 1,111 3.0 -30.1°
Drops below altitude 10° 20:46:21 10° 327° (NNW) 2,940 5.8 -31.8°
Sets 20:48:49 0° 326° (NNW) 3,897 6.5 -32.4°
